Погода в Унежме

Россия / Архангельская область     63°46′50″N   36°37′51″E
темп.,
°C
ветер,
м/с
пор.,
м/с
влажн.,
%
обл.,
%
осадки,
мм/ч
давл.,
гПа
погр.,
м
12 мая, ср
ср1200:00+15юз6166697 0.0 1021619
03:00+14юз51567100 0.0 1022519
06:00+14юз413705 0.0 1023460
09:00+19юз58547 0.0 1023663
12:00+23юз46426 0.0 10231522
15:00+24юз453629 0.0 10231725
18:00+23ююз45431 0.0 10221295
21:00+16ююз28640 0.0 1022162
13 мая, чт
чт1300:00+14ююз37660 0.0 1022127
03:00+12ююз39680 0.0 1022147
06:00+15ююз39670 0.0 1021227
09:00+21ююз46464 0.0 1021576
12:00+24ююз46395 0.0 10191846
15:00+25ююз353568 0.0 10182656
18:00+22ююз475325 0.1 1017558
21:00+18ю22701 0.1 101630
14 мая, пт
пт1400:00+15ююз22820 0.0 101536
03:00+14ююв22870 0.0 101412
06:00+16юв23780 0.0 1012132
09:00+20юв346193 0.7 1010752
12:00+18ююз6774100 3.6 1010925
15:00+18ююз676442 4.0 10111181
18:00+15юз587477 0.0 1011977
21:00+13юз3981100 0.0 1012765
15 мая, сб
сб1500:00+13юз3983100 0.0 1011429
03:00+13юз3884100 0.1 1012411
06:00+13юз268169 0.1 1012318
09:00+14зюз127697 0.1 1012424
12:00+16сз116987 0.0 1012543
15:00+15ссв3371100 0.0 1012440
18:00+13ссв4678100 0.0 1011276
21:00+8ссв3689100 0.0 1010175
16 мая, вс
вс1600:00+8ссв259286 0.0 1009128
03:00+8св279398 0.0 1008188
06:00+7ссв3797100 2.2 1007219
09:00+6ссв3696100 3.8 1007246
12:00+6с3695100 0.3 1008276
15:00+7с3693100 0.3 1009351
18:00+7с348999 0.0 1010327
21:00+6ссз2491100 0.0 1011222